Tracking 30995 objects as of 7-Jul-2025
HD Live streaming from Space Station
objects crossing your sky now

SL-16 DEB

Track SL-16 DEB now!
10-day predictions


NORAD ID: 22333
Int'l Code: 1992-093W
Perigee: 659.9 km
Apogee: 833.9 km
Inclination: 71.0 °
Period: 99.6 minutes
Semi major axis: 7117 km
RCS: 0.1907 m2 (medium)
Launch date: December 25, 1992
Source: Commonwealth of Independent States (former USSR) (CIS)
Launch site: TYURATAM MISSILE AND SPACE COMPLEX (TTMTR)

Note: This is SATELLITE DEBRIS
Your satellite tracking list
ONEWEB-0316
Track 1 satellite(s)




NASA's NSSDC Master Catalog

Two Line Element Set (TLE):
1 22333U 92093W   25187.26097819  .00000507  00000-0  14517-3 0  9994
2 22333  71.0034 121.2231 0122247  44.6760 316.4149 14.45691866690066
Source of the keplerian elements: AFSPC